Weather in Komotini

Greece     41°07′07″N   25°24′13″E
temp.,
°C
wind,
m/s
gust,
m/s
humid.,
%
clouds,
%
prec.,
mm/h
press.,
hPa
HPBL,
m
26 january, tue
tue2623:00+11ssw368094 0.0 1008116
02:00+11sw587094 0.1 1006228
05:00+10sw367981 0.0 1006151
08:00+10ssw478373 0.1 1005181
11:00+14sw81371100 0.1 10041263
14:00+14sw81375100 0.4 10021208
17:00+13ssw91585100 3.2 1001858
20:00+13s101781100 7.1 1000921
27 january, wed
wed2723:00+4nne71095100 10.7 1000345
02:00+1nne111993100 40.6 998734
05:00+1nne112090100 17.0 996896
08:00+1n112183100 19.1 9971101
11:00+1n61694100 1.1 10001224
14:00+1nw35100100 1.8 1002280
17:00+1ne0195100 0.1 1003140
20:000nne1284100 0.1 1005122
28 january, thu
thu2823:00+1ene2281100 0.0 100735
02:000ne1174100 0.0 100830
05:00−1ene2272100 0.0 100831
08:00−2ne1269100 0.0 101028
11:00+1nne119887 0.0 101041
14:00+2n119473 0.0 101163
17:00+1ese117843 0.0 101134
20:00−1ene228026 0.0 101447
29 january, fri
fri2923:00−2ne22830 0.0 101428
02:00−2ne127923 0.0 101428
05:00−2ene017451 0.0 101330
08:00−1nne117467 0.0 101335
11:00+1n1190100 0.0 101374
14:00+2ne1191100 0.0 1011108
17:00+2ene128763 0.0 101038
20:00+2ne128069 0.0 101127
30 january, sat
sat3023:00+2n017623 0.0 101028
02:00+3ne117661 0.0 100826
05:00+3ne2284100 0.0 100627
08:00+4ene2296100 0.4 100326
11:00+4nnw2299100 4.8 100231
14:00+4nne3597100 5.5 1002137
17:00+3nne229976 0.0 100439
20:00+3ne229785 0.0 100752